Regional Weather Roundup
Issued by NWS Newport/Morehead, NC

Current Version | Previous Version | Graphics & Text | Print | Product List | Glossary On
Versions: 1 2 3 4 5 6 7 8 9 10 11 12 13 14 15 16 17 18 19 20 21 22 23 24 25 26 27 28 29 30 31 32 33 34 35 36 37 38 39 40 41 42 43 44 45 46 47 48 49 50
000 ASUS42 KMHX 230510 RWRMHX WEATHER ROUNDUP FOR EASTERN NORTH CAROLINA NATIONAL WEATHER SERVICE NEWPORT/MOREHEAD CITY NC 100 AM EDT SAT AUG 23 2014 NOTE: "FAIR" INDICATES FEW OR NO CLOUDS BELOW 12,000 FEET WITH NO SIGNIFICANT WEATHER AND/OR OBSTRUCTIONS TO VISIBILITY NCZ015>017-031-032-045>047-102-103-230600- NORTH COAST CITY SKY/WX TMP DP RH WIND PRES REMARKS EDENTON PTCLDY 74 72 92 N3 29.96S ELIZABETH CITY PTCLDY 75 72 90 N7 29.96S KITTY HAWK PTCLDY 77 73 87 NE5 29.94S MANTEO MOCLDY 75 73 94 N5 29.95S $$ NCZ045>047-081-094-103-104-230600- CENTRAL COAST CITY SKY/WX TMP DP RH WIND PRES REMARKS FRISCO MOCLDY 75 73 93 NE3 29.94F SWANQUARTER N/A 75 N/A N/A NE1 29.91S $$ NCZ095-097-098-100-101-230600- SOUTHERN COAST CITY SKY/WX TMP DP RH WIND PRES REMARKS BEAUFORT MOCLDY 79 74 84 N5 29.94F CEDAR ISLAND N/A 81 N/A N/A NE6 29.97S JACKSONVILLE PTCLDY 76 72 87 W3 29.95F NEWPORT NOT AVBL PINEY ISLAND MOCLDY 82 75 79 NE5 29.94S WILMINGTON CLOUDY 76 73 91 E3 29.95S $$ NCZ011>013-027>030-043-044-078>080-089-090>093-098-230600- COASTAL PLAIN CITY SKY/WX TMP DP RH WIND PRES REMARKS AHOSKIE MOCLDY 72 70 95 CALM 29.97S CLINTON NOT AVBL ELIZABETHTOWN CLEAR 74 72 92 CALM 29.95F GOLDSBORO PTCLDY 75 74 98 CALM 29.94F GREENVILLE MOCLDY 75 73 94 CALM 29.97F HAVELOCK PTCLDY 80 73 79 N3 29.96S KENANSVILLE PTCLDY 72 70 95 CALM 29.97F KINSTON PTCLDY 75 73 93 CALM 29.96F NEW BERN MOCLDY 77 74 90 W3 29.96F RICHLANDS MOCLDY 73 70 88 CALM 29.96F ROANOKE RAPIDS NOT AVBL ROCKY MOUNT MOCLDY 75 73 93 CALM 29.96F WASHINGTON CLOUDY 75 72 89 CALM 29.95F WHITEVILLE CLEAR 76 72 87 CALM 29.95S $$ AMZ130-135-150-152-154-156-158-170-250-252-270-ANZ085-086-088-633-658-670-230600- MARINE OBSERVATIONS STATION/POSITION TIME TEMP WIND PRES WAVE SWELL AIR SEA DIR/SP/G HT/PER HT/PER (UTC) (F) (DEG/KT/KT) (MB) (FT/S) (FT/S) CHESAPEAKE LIGHT 0400 76 60/ 13/ 13 1015.1 BUOY 44014 0500 77 78 50/ 10/ 10 1013.6 2/ 7 2/ 7 DUCK 0500 78 80 50/ 9/ 9 1013.6 2E DUCK 0500 N/A 2/ 7 OREGON INLET 0500 78 83 350/ 5/ 8 1014.0 BUOY 44095 0500 80 N/A 2/ 7 20E OREGON INLET NOT AVBL HATTERAS CG 0500 80 82 40/ 4/ 5 1014.3 DIAMOND BUOY 0500 78 330/ 6/ 8 1013.7 2/ 8 2/ 8 CAPE LOOKOUT 0400 83 360/ 6/ 7 1013.7 BEAUFORT LAB 0500 82 84 10/ 5/ 6 1013.7 30 SE NEW RIVER 0400 82 83 290/ 12/ 14 1013.1 5 SE WRIGHTSVILL 0500 77 83 330/ 16/ 17 N/A BUOY 41002 0448 82 82 240/ 14/ 17 1015.1 2/ 5 2/ 8 BUOY 41004 0500 85 85 210/ 10/ 12 1013.8 $$

USA.gov is the U.S. government's official web portal to all federal, state and local government web resources and services.